Simultaneous Nadir Overpasses (SNOs) Predictions

Prediction of SNOs between GOES-16 and FY3D Satellite Orbit:

Table of predicted SNOs for the next 14.0 days since TLE Epoch: 8/15/2025
Index Date Time (GOES-16) GOES-16 Lat,Lon FY3D Lat,Lon Distance(km) Time Diff (sec)
1 08/17/2025 10:14:48 -0.07,-104.73 0.08,-105.30 66.74 80
2 08/18/2025 09:53:19 -0.08,-104.72 -0.96,-100.74 453.86 80
3 08/19/2025 22:15:07 0.08,-104.71 -0.20,-105.96 142.60 80
4 08/20/2025 21:58:57 0.09,-104.71 0.84,-101.40 378.42 80
5 08/22/2025 10:20:37 -0.09,-104.72 0.34,-106.58 213.22 80
6 08/23/2025 09:59:07 -0.09,-104.71 -0.71,-102.01 307.95 80
7 08/24/2025 22:20:56 0.09,-104.71 -0.46,-107.24 287.94 80
8 08/25/2025 22:04:46 0.10,-104.72 0.59,-102.67 233.80 80
9 08/27/2025 10:26:24 -0.09,-104.73 0.64,-107.85 356.62 80
10 08/28/2025 10:04:55 -0.10,-104.73 -0.41,-103.28 164.77 80
